Location: The Saddle
(36.8333°N, 80.3417°W)
Time: 11:00:39
(UTC-04:00)

Vanguard 2 Rocket - Pass Details

Date: 02 February 2023
Orbit: 555 x 3316 km, 32.9° (Epoch: 25 March)

Event Time Altitude Azimuth Distance (km) Brightness Sun altitude
Rises 17:12:22 0° 258° (WSW) 3,156 11.7 5.7°
Reaches altitude 10° 17:15:51 10° 230° (SW) 2,562 11.1 5.0°
Maximum altitude 17:18:40 13° 202° (SSW) 2,616 10.1 4.5°
Drops below altitude 10° 17:22:06 10° 175° (S) 3,252 10.0 3.9°
Sets 17:27:51 0° 153° (SSE) 4,896 10.6 2.8°
